This is the latest recevied weather packets stored in our database for station/object BRIVER. If no packets are shown the sender has not sent any weather packets the latest 1 day(s).
| Time | Temp. | Humidity | Pressure | Rain* | Wind** | Luminosity | Snow |
|---|---|---|---|---|---|---|---|
| 1836274830 | 17.78° C | 71% | 1011.6 hPa | 0 mm | 0.89 m/s, 233° | - | - |
| 1836274769 | 17.78° C | 71% | 1011.7 hPa | 0 mm | 0.89 m/s, 243° | - | - |
| 1836274469 | 17.78° C | 72% | 1011.7 hPa | 0 mm | 1.34 m/s, 232° | - | - |
| 1836274319 | 17.78° C | 71% | 1011.7 hPa | 0 mm | 0.89 m/s, 229° | - | - |
| 1836274292 | 17.22° C | 72% | 1011.6 hPa | 0 mm | 1.34 m/s, 237° | - | - |
| 1836274169 | 17.22° C | 73% | 1011.6 hPa | 0 mm | 1.34 m/s, 232° | - | - |
| 1836273869 | 17.22° C | 72% | 1011.5 hPa | 0 mm | 1.34 m/s, 219° | - | - |
| 1778053228 | 9.44° C | 96% | 1016 hPa | 0 mm | 0.45 m/s, 196° | - | - |
| 1778053049 | 9.44° C | 96% | 1016 hPa | 0 mm | 0 m/s | - | - |
| 1778052928 | 9.44° C | 96% | 1016 hPa | 0 mm | 0 m/s | - | - |
| 1778052628 | 9.44° C | 95% | 1016 hPa | 0 mm | 0 m/s | - | - |
| 1778052510 | 9.44° C | 95% | 1016.1 hPa | 0 mm | 0 m/s | - | - |
| 1778052328 | 9.44° C | 95% | 1016.1 hPa | 0 mm | 0.45 m/s, 196° | - | - |
| 1778052028 | 9.44° C | 96% | 1016 hPa | 0 mm | 0.89 m/s, 196° | - | - |
| 1778051969 | 9.44° C | 96% | 1016.1 hPa | 0 mm | 0.89 m/s, 196° | - | - |
| 1778051728 | 9.44° C | 96% | 1016 hPa | 0 mm | 0.89 m/s, 196° | - | - |
| 1778051428 | 9.44° C | 96% | 1016.1 hPa | 0 mm | 0.89 m/s, 196° | - | - |
| 1778051128 | 9.44° C | 96% | 1015.9 hPa | 0 mm | 0.89 m/s, 196° | - | - |
| 1778050890 | 9.44° C | 96% | 1015.8 hPa | 0 mm | 0.45 m/s, 196° | - | - |
| 1778050828 | 9.44° C | 96% | 1015.8 hPa | 0 mm | 0.45 m/s, 196° | - | - |
| 1778050528 | 9.44° C | 96% | 1015.7 hPa | 0 mm | 0 m/s | - | - |
| 1778050349 | 9.44° C | 95% | 1015.7 hPa | 0 mm | 0 m/s | - | - |
| 1778050228 | 9.44° C | 95% | 1015.7 hPa | 0 mm | 0 m/s | - | - |
| 1778049928 | 10° C | 95% | 1015.7 hPa | 0 mm | 0 m/s | - | - |
| 1778049809 | 10° C | 95% | 1015.7 hPa | 0 mm | 0 m/s | - | - |
* Rain latest hour (hover to see other rain measurements)
** Current wind speed in m/s (hover to see current wind gust speed)